Rbgn^[z[y[W
メイン
   新天体発見情報
     Comet P/2020 S5 (PANSTARRS)
投稿するにはまず登録を

スレッド表示 | 新しいものから 前のトピック | 次のトピック | 下へ
投稿者 スレッド
佐藤裕久
投稿日時: 2020-10-5 17:32
モデレータ
登録日: 2005-6-12
居住地: 日本
投稿: 2129
オンライン
Comet P/2020 S5 (PANSTARRS)

R. Weryk (ハワイ大学, 天文学研究所)の通報によると、9月21日、HaleakalaにあるPan-STARRS1
1.8-m Ritchey-Chretien反射望遠鏡で得た画像から彗星を発見した。
4枚の45秒w-バンド露出から、シーイング1".3で拡散した2".2 (半値全幅:FWHM)コマが見えp.a. 
225°に約4"の真直ぐな尾がある。
Werykの追加報告では、9月26日UT、4枚追加の60秒w-バンドPan-STARRS1の露出では、拡散した
有効径0".3(FWHMは1".45のシーイングで1".8)のコマとp.a. 240°に4"の尾が見えた。9月27.6日、
拡散した有効径0".3(FWHMは0".9のシーイングで1".2)のコマとp.a. 240°に6"の尾が見えた。
小惑星センターのPCCP webpageに公表後、佐藤英貴氏(東京都文京区, 9月25.4日UT, 60秒露出20枚
のスタック, 0.43-m f/6.8 アストログラフ, Mayhill近郊, NM, 遠隔操作:強く集光した8"のコマ
が見え、p.a. 300°に向かって8"の尾の気配がある。5".7の円形範囲で測定した光度は20.0等で
あった)ら、他のCCD位置観測者によって彗星状と観測された。

彗星機能の報告は次の通り:

OC   Date        Reporter           Coma    Tail    PA          Exposures
I52  2020-09-23  D. Rankin           6"      5"     240
L01  2020-09-24  K. Korlevic         6"                           6x180s
H06  2020-09-25  H. Sato             8"      8"     300
F51  2020-09-26  R. Weryk           0".3     4"     240           4x60s
204  2020-09-27  A. Aletti           5"     10"     220          45x60s

発見位置は次のとおり、

     2020 UT             R.A. (2000) Decl.       Mag.
     Sept.16.52355    3 19 41.89   - 4 18 36.8   21.3
          16.54155    3 19 41.78   - 4 18 39.7   21.4
          16.55983    3 19 41.67   - 4 18 42.5   21.1
          16.57841    3 19 41.56   - 4 18 45.4   21.2

MPCの楕円軌道要素、位置推算表は次のとおり、

Orbital elements:
    P/2020 S5 (PANSTARRS)                                                       
Epoch 2020 Aug. 19.0 TT = JDT 2459080.5                                         
T 2020 Aug. 8.40686 TT                                  Rudenko                 
q   2.6792508            (2000.0)            P               Q                  
n   0.12095918     Peri.   53.01269     +0.97476053     -0.16660130             
a   4.0492709      Node   316.01561     +0.06376388     +0.84570100             
e   0.3383375      Incl.   12.35673     +0.21395344     +0.50698504             
P   8.15                                                                        
From 29 observations 2020 Aug. 26-Sept. 27, mean residual 0".3.                 
                                                                                
    P/2020 S5 (PANSTARRS)                                                       
Epoch 2028 Sept. 26.0 TT = JDT 2462040.5                                        
T 2028 Oct. 12.65683 TT                                 Rudenko                 
q   2.6955654            (2000.0)            P               Q                  
n   0.12025918     Peri.   53.17670     +0.97447815     -0.16830253             
a   4.0649689      Node   315.95358     +0.06536123     +0.84579096             
e   0.3368792      Incl.   12.33719     +0.21475627     +0.50627256             
P   8.20                                                                        
From 29 observations 2020 Aug. 26-Sept. 27, mean residual 0".3.                 
                                                                                
    P/2020 S5 (PANSTARRS)                                                       
Epoch 2020 Dec. 17.0 TT = JDT 2459200.5                                         
T 2020 Aug. 8.46471 TT                                  Rudenko                 
q   2.6792996            (2000.0)            P               Q                  
n   0.12094939     Peri.   53.02767     +0.97471680     -0.16685678             
a   4.0494893      Node   316.01564     +0.06398536     +0.84568408             
e   0.3383611      Incl.   12.35675     +0.21408650     +0.50692924             
P   8.15                                                                        
From 29 observations 2020 Aug. 26-Sept. 27, mean residual 0".3.                 
                                                                                
Ephemeris:
Date    TT    R. A. (2000) Decl.     Delta      r    Elong.  Phase   m1
2020 08 30    01 39 34.6 +25 37 29   1.9936  2.6825   123.2    18.4  20.3
...
2020 09 14    01 36 56.2 +27 07 56   1.8686  2.6885   136.4    14.9  20.2
...
2020 09 22    01 33 19.5 +27 39 21   1.8177  2.6930   143.7    12.7  20.1
...
2020 09 28    01 29 46.3 +27 53 58   1.7882  2.6970   149.0    11.0  20.1
2020 09 29    01 29 07.2 +27 55 37   1.7840  2.6977   149.9    10.7  20.1
2020 09 30    01 28 27.3 +27 57 03   1.7801  2.6984   150.7    10.5  20.1
...
2020 10 06    01 24 11.5 +28 00 55   1.7613  2.7030   155.5     8.8  20.0
...
2020 10 14    01 18 03.7 +27 53 34   1.7500  2.7098   160.2     7.2  20.0
...
2020 10 29    01 06 58.2 +27 06 37   1.7732  2.7249   159.3     7.4  20.1

(MPEC 2020-S240、CBET 4864)

スレッド表示 | 新しいものから 前のトピック | 次のトピック | トップ

投稿するにはまず登録を
 
© 1999 Tsutomu Seki.